GW5633 Weather Reports


time (UTC)temp
C
wind
direction
speed
KPH
gust
KPH
rain 1hr
cm
rain 24hr
cm
rain mn
cm
humidity
%
barometer
mb
20260504050605 8 222 0.0 0.0 0.00 0.00 0.00 51 1013.2
20260504045559 8 187 0.0 0.0 0.00 0.00 0.00 50 1013.0
20260504045054 9 227 0.0 0.0 0.00 0.00 0.00 49 1013.2
20260504044552 9 198 0.0 0.0 0.00 0.00 0.00 49 1013.4
20260504044049 9 282 0.0 0.0 0.00 0.00 0.00 49 1013.2
20260504043546 9 260 0.0 0.0 0.00 0.00 0.00 49 1013.0
20260504043043 9 259 0.0 0.0 0.00 0.00 0.00 48 1013.1
20260504042540 9 206 0.0 0.0 0.00 0.00 0.00 48 1013.2
20260504042037 9 262 0.0 0.0 0.00 0.00 0.00 48 1013.2
20260504041533 9 194 0.0 0.0 0.00 0.00 0.00 48 1012.9
20260504041029 9 245 0.0 0.0 0.00 0.00 0.00 48 1012.9
20260504040527 9 272 0.0 0.0 0.00 0.00 0.00 48 1013.0
20260504040023 8 236 0.0 0.0 0.00 0.00 0.00 49 1012.8
20260504035520 8 299 0.0 0.0 0.00 0.00 0.00 49 1012.8
20260504035016 8 281 0.0 0.0 0.00 0.00 0.00 49 1012.7
20260504034514 8 286 0.0 0.0 0.00 0.00 0.00 49 1012.6
20260504034011 8 251 0.0 0.0 0.00 0.00 0.00 49 1012.6
20260504033509 8 240 0.0 0.0 0.00 0.00 0.00 49 1012.6
20260504033006 8 176 0.0 0.0 0.00 0.00 0.00 49 1012.7
20260504032503 8 177 0.0 0.0 0.00 0.00 0.00 49 1012.7
20260504031959 8 293 0.0 0.0 0.00 0.00 0.00 48 1012.7
20260504031456 8 293 0.0 0.0 0.00 0.00 0.00 48 1012.6
20260504030953 8 192 0.0 0.0 0.00 0.00 0.00 48 1012.6
20260504030450 9 235 0.0 0.0 0.00 0.00 0.00 48 1012.6
20260504025946 9 250 0.0 0.0 0.00 0.00 0.00 47 1012.7
20260504025443 9 186 0.0 0.0 0.00 0.00 0.00 47 1012.3
20260504024940 8 199 0.0 0.0 0.00 0.00 0.00 47 1012.6
20260504024437 9 280 0.0 0.0 0.00 0.00 0.00 47 1012.7
20260504023934 9 289 0.0 0.0 0.00 0.00 0.00 46 1012.6
20260504023430 9 276 0.0 0.0 0.00 0.00 0.00 46 1012.7
20260504022926 9 206 0.0 0.0 0.00 0.00 0.00 46 1012.5
20260504022423 10 269 0.0 0.0 0.00 0.00 0.00 45 1012.8
20260504021919 10 287 0.0 0.0 0.00 0.00 0.00 45 1012.6
20260504021417 10 301 0.0 0.0 0.00 0.00 0.00 45 1012.8
20260504020914 10 264 0.0 0.0 0.00 0.00 0.00 44 1012.6
20260504020410 10 277 0.0 0.0 0.00 0.00 0.00 44 1012.5
20260504015907 10 287 0.0 0.0 0.00 0.00 0.00 44 1012.6
20260504015403 10 324 0.0 0.0 0.00 0.00 0.00 44 1012.6
20260504014859 10 292 0.0 0.0 0.00 0.00 0.00 44 1012.8
20260504014355 10 253 0.0 0.0 0.00 0.00 0.00 44 1012.6
20260504013853 10 259 0.0 0.0 0.00 0.00 0.00 44 1012.5
20260504013351 10 312 0.0 0.0 0.00 0.00 0.00 44 1012.6
20260504012847 10 311 0.0 0.0 0.00 0.00 0.00 43 1012.5
20260504012345 10 290 0.0 0.0 0.00 0.00 0.00 42 1012.2
20260504011842 10 280 0.0 0.0 0.00 0.00 0.00 42 1012.6
20260504011338 10 313 0.0 0.0 0.00 0.00 0.00 42 1012.3
20260504010835 10 323 0.0 0.0 0.00 0.00 0.00 41 1012.2
20260504010330 11 247 0.0 0.0 0.00 0.00 0.00 40 1012.1
20260504005827 11 223 0.0 0.0 0.00 0.00 0.00 39 1012.0
20260504005324 11 199 0.0 0.0 0.00 0.00 0.00 39 1012.0
20260504004821 11 261 0.0 0.0 0.00 0.00 0.00 39 1012.0
20260504004319 11 227 0.0 0.0 0.00 0.00 0.00 38 1011.9
20260504003815 11 273 0.0 0.0 0.00 0.00 0.00 38 1011.8
20260504003313 11 280 0.0 0.0 0.00 0.00 0.00 37 1011.6
20260504002809 11 261 0.0 0.0 0.00 0.00 0.00 37 1011.7
20260504002306 11 324 0.0 0.0 0.00 0.00 0.00 37 1011.6
20260504001803 12 313 0.0 0.0 0.00 0.00 0.00 36 1011.8
20260504001300 12 280 0.0 0.0 0.00 0.00 0.00 36 1011.4
20260504000757 12 301 0.0 0.0 0.00 0.00 0.00 36 1011.4
20260504000254 12 256 0.0 0.0 0.00 0.00 0.00 35 1011.5
20260503235752 12 299 0.0 0.0 0.00 0.00 0.00 34 1011.4
20260503235249 12 306 0.0 0.0 0.00 0.00 0.00 34 1011.3
20260503234747 13 294 0.0 0.0 0.00 0.00 0.00 34 1011.1
20260503234245 13 332 0.0 0.0 0.00 0.00 0.00 33 1011.2
20260503233741 13 285 0.0 0.0 0.00 0.00 0.00 33 1011.2
20260503233237 13 334 0.0 0.0 0.00 0.00 0.00 34 1011.3
20260503232734 13 297 0.0 0.0 0.00 0.00 0.00 33 1011.0
20260503232231 13 284 3.2 4.8 0.00 0.00 0.00 32 1011.2
20260503231730 14 354 0.0 0.0 0.00 0.00 0.00 32 1011.2
20260503231226 14 282 4.8 9.7 0.00 0.00 0.00 31 1011.2
20260503230722 14 20 0.0 0.0 0.00 0.00 0.00 31 1011.1
20260503230220 14 322 0.0 0.0 0.00 0.00 0.00 30 1010.9
20260503225717 14 285 3.2 11.3 0.00 0.00 0.00 30 1010.8
20260503225217 14 309 1.6 3.2 0.00 0.00 0.00 30 1010.9
20260503224715 14 231 8.0 14.5 0.00 0.00 0.00 30 1010.9
20260503224212 14 298 1.6 3.2 0.00 0.00 0.00 30 1010.8
20260503223710 14 278 3.2 8.0 0.00 0.00 0.00 30 1010.8
20260503223207 14 298 3.2 8.0 0.00 0.00 0.00 29 1010.8
20260503222703 15 324 0.0 1.6 0.00 0.00 0.00 30 1010.8
20260503222201 15 310 11.3 14.5 0.00 0.00 0.00 28 1010.6
20260503221659 15 271 9.7 12.9 0.00 0.00 0.00 28 1010.8
20260503221156 15 334 0.0 1.6 0.00 0.00 0.00 28 1010.7
20260503220653 15 287 1.6 8.0 0.00 0.00 0.00 31 1010.7
20260503220149 15 314 0.0 0.0 0.00 0.00 0.00 28 1010.9
20260503215647 15 345 1.6 3.2 0.00 0.00 0.00 30 1010.7
20260503215144 15 350 1.6 3.2 0.00 0.00 0.00 28 1010.7
20260503214643 14 315 1.6 3.2 0.00 0.00 0.00 28 1010.5
20260503214138 14 297 11.3 12.9 0.00 0.00 0.00 28 1010.8
20260503213637 14 333 14.5 17.7 0.00 0.00 0.00 28 1010.5
20260503213133 15 1 0.0 0.0 0.00 0.00 0.00 29 1010.6
20260503212631 15 357 0.0 0.0 0.00 0.00 0.00 27 1010.5
20260503212128 15 86 0.0 0.0 0.00 0.00 0.00 26 1010.7
20260503211626 15 16 3.2 9.7 0.00 0.00 0.00 27 1010.5
20260503211121 15 323 0.0 0.0 0.00 0.00 0.00 28 1010.5
20260503210618 15 8 3.2 4.8 0.00 0.00 0.00 28 1010.7
20260503210114 15 16 0.0 0.0 0.00 0.00 0.00 29 1010.5
20260503205610 15 17 1.6 8.0 0.00 0.00 0.00 30 1010.5
20260503205107 15 282 9.7 32.2 0.00 0.00 0.00 30 1010.6
20260503204604 15 320 4.8 9.7 0.00 0.00 0.00 27 1010.6
20260503204101 15 37 0.0 0.0 0.00 0.00 0.00 31 1010.6
20260503203558 15 301 8.0 14.5 0.00 0.00 0.00 29 1010.5
20260503203055 15 274 8.0 11.3 0.00 0.00 0.00 31 1010.7
20260503202553 14 337 8.0 12.9 0.00 0.00 0.00 29 1010.7
20260503202050 14 285 9.7 14.5 0.00 0.00 0.00 29 1010.7
20260503201548 14 297 9.7 20.9 0.00 0.00 0.00 28 1010.6
20260503201045 13 282 11.3 17.7 0.00 0.00 0.00 29 1010.9
20260503200542 14 311 9.7 12.9 0.00 0.00 0.00 29 1010.8
20260503200038 13 16 0.0 0.0 0.00 0.00 0.00 31 1011.1
20260503195535 14 295 9.7 17.7 0.00 0.00 0.00 29 1010.9
20260503195032 14 66 0.0 0.0 0.00 0.00 0.00 30 1010.8
20260503194529 13 311 6.4 12.9 0.00 0.00 0.00 30 1010.9
20260503194029 13 13 1.6 4.8 0.00 0.00 0.00 31 1011.0
20260503193526 12 320 0.0 0.0 0.00 0.00 0.00 34 1011.2
20260503193022 13 357 0.0 0.0 0.00 0.00 0.00 30 1011.2
20260503192518 13 358 12.9 17.7 0.00 0.00 0.00 32 1011.4
20260503192014 13 353 1.6 3.2 0.00 0.00 0.00 31 1011.4
20260503191511 13 289 14.5 25.7 0.00 0.00 0.00 30 1011.4
20260503191008 13 331 9.7 12.9 0.00 0.00 0.00 30 1011.1
20260503190504 13 357 4.8 12.9 0.00 0.00 0.00 31 1011.2
20260503190001 13 354 0.0 1.6 0.00 0.00 0.00 31 1011.4
20260503185458 12 313 0.0 3.2 0.00 0.00 0.00 33 1011.5
20260503184957 12 256 9.7 14.5 0.00 0.00 0.00 32 1011.4
20260503184454 12 352 4.8 12.9 0.00 0.00 0.00 32 1011.7
20260503183950 12 35 3.2 9.7 0.00 0.00 0.00 32 1011.7
20260503183447 12 10 8.0 16.1 0.00 0.00 0.00 35 1011.8
20260503182944 11 12 1.6 3.2 0.00 0.00 0.00 37 1011.8
20260503182443 11 18 0.0 0.0 0.00 0.00 0.00 34 1011.7
20260503181940 11 331 0.0 3.2 0.00 0.00 0.00 34 1011.7
20260503181437 12 25 4.8 8.0 0.00 0.00 0.00 33 1011.8
20260503180933 12 8 3.2 8.0 0.00 0.00 0.00 35 1011.8
20260503180431 12 346 1.6 4.8 0.00 0.00 0.00 35 1011.9
20260503175928 11 289 1.6 3.2 0.00 0.00 0.00 37 1011.8
20260503175426 11 14 3.2 4.8 0.00 0.00 0.00 37 1011.7
20260503174921 12 21 0.0 1.6 0.00 0.00 0.00 36 1011.8
20260503174420 11 18 0.0 1.6 0.00 0.00 0.00 34 1011.9
20260503173920 11 15 4.8 9.7 0.00 0.00 0.00 35 1011.7
20260503173416 11 23 3.2 3.2 0.00 0.00 0.00 34 1012.0
20260503172913 11 15 1.6 3.2 0.00 0.00 0.00 35 1012.0
20260503172411 11 345 3.2 8.0 0.00 0.00 0.00 38 1012.0
20260503171907 10 0 1.6 1.6 0.00 0.00 0.00 35 1012.0
20260503171404 10 353 0.0 1.6 0.00 0.00 0.00 38 1012.1
20260503170901 10 4 4.8 12.9 0.00 0.00 0.00 37 1012.2
20260503170357 11 2 6.4 14.5 0.00 0.00 0.00 35 1012.1
20260503150749 8 16 0.0 0.0 0.00 0.00 0.00 44 1013.2
20260503150245 8 356 0.0 0.0 0.00 0.00 0.00 46 1012.9
20260503140210 7 10 6.4 8.0 0.00 0.00 0.00 52 1012.9
20260503131140 8 167 4.8 11.3 0.00 0.00 0.00 52 1012.6
20260503130637 7 38 0.0 0.0 0.00 0.00 0.00 54 1012.7
20260503130135 7 25 11.3 22.5 0.00 0.00 0.00 53 1013.0
20260503110527 5 5 0.0 0.0 0.00 0.00 0.00 62 1012.3
20260503090414 5 26 0.0 0.0 0.00 0.00 0.00 60 1011.3
20260503081340 6 24 3.2 3.2 0.00 0.00 0.00 57 1010.9
20260503080837 6 24 1.6 3.2 0.00 0.00 0.00 56 1011.2
20260503080334 6 49 0.0 0.0 0.00 0.00 0.00 56 1010.9
20260503072811 6 1 0.0 1.6 0.00 0.00 0.00 55 1010.8
20260503072308 6 0 0.0 1.6 0.00 0.00 0.00 54 1010.7
20260503071803 6 19 0.0 1.6 0.00 0.00 0.00 55 1010.7
20260503071301 6 30 8.0 16.1 0.00 0.00 0.00 54 1010.7
20260503070757 6 7 0.0 1.6 0.00 0.00 0.00 54 1010.5
20260503070255 6 346 0.0 1.6 0.00 0.00 0.00 54 1010.5
20260503060226 7 18 0.0 0.0 0.00 0.00 0.00 53 1010.9
20260503054713 7 47 0.0 0.0 0.00 0.00 0.00 52 1011.1
20260503054210 7 21 6.4 11.3 0.00 0.00 0.00 52 1011.1
20260503053708 7 35 0.0 0.0 0.00 0.00 0.00 53 1011.3
20260503053207 7 60 0.0 0.0 0.00 0.00 0.00 53 1011.2
20260503052703 7 15 1.6 4.8 0.00 0.00 0.00 52 1011.2